Location: Glens Falls
(43.3090°N, 73.6440°W)
Time: 15:24:25
(UTC-04:00)

USA 215 - Pass Details

Date: 24 February 2018
Orbit: 1101 x 1107 km, 123.0° (Epoch: 12 June)

Event Time Altitude Azimuth Distance (km) Brightness Sun altitude
Exits shadow 20:11:57 53° 43° (NE) 1,335 3.4 -28.7°
Maximum altitude 20:13:42 84° 322° (NW) 1,113 3.2 -29.0°
Drops below altitude 10° 20:20:15 10° 235° (SW) 2,955 5.9 -30.1°
Sets 20:22:43 0° 234° (SW) 3,912 6.6 -30.6°
